User: anonymous   Login
Location: Unspecified
(0.0000°N, 0.0000°E)
Time: 08:58:05
(UTC+00:00)
Language:

STARLINK-1695 - Orbit

View from above orbital plane
View from above orbital plane
View from above satellite
View from above satellite

Ground track
Ground track

The orbit is defined by the following mean orbital elements,

1 46329U          26145.48165154 +.00000000 +00000-0 +78880-3 0 00003
2 46329  53.0431 321.0786 0002083 124.4960 235.6253 15.69235369    03
Epoch (UTC): 25 May 2026 11:33:34
Eccentricity: 0.0002083
inclination: 53.0431°
perigee height: 360 km
apogee height: 362 km
right ascension of ascending node: 321.0786°
argument of perigee: 124.4960°
revolutions per day: 15.69235369
mean anomaly at epoch: 235.6253°

The dashed part of the orbit path shows where the satellite is in the earth's shadow,  

DLR